Simultaneous Nadir Overpasses (SNOs) Predictions

Prediction of SNOs between NOAA-19 and TERRA Satellite Orbit:

Table of predicted SNOs for the next 14.0 days since TLE Epoch: 5/7/2016
Index Date (NOAA-19) Time (NOAA-19) Lat,Lon (NOAA-19) SZA (NOAA-19 ) Date (TERRA) Time (TERRA) Lat,Lon (TERRA) SZA (TERRA ) Distance(km) Time Diff (sec)
1 05/08/2016 05:53:45 -74.06, -82.86 123.13 05/08/2016 05:54:54 -73.96, -81.16 123.15 53.22 69
2 05/08/2016 06:44:32 73.59, 85.59 56.44 05/08/2016 06:44:27 73.57, 85.62 56.42 2.21 5
3 05/10/2016 11:27:38 73.67, 14.66 55.94 05/10/2016 11:28:45 73.66, 14.74 55.94 2.78 67
4 05/10/2016 12:18:41 -73.56,-177.85 124.17 05/10/2016 12:18:15 -73.54,-177.88 124.20 2.40 26
5 05/12/2016 17:01:47 -73.66, 111.20 124.64 05/12/2016 17:02:33 -73.63, 111.23 124.66 3.32 46
6 05/12/2016 17:52:41 73.56, -81.29 55.27 05/12/2016 17:51:59 73.55, -81.31 55.25 1.37 42
7 05/14/2016 22:35:47 73.65,-152.23 54.82 05/14/2016 22:36:17 73.63,-152.21 54.81 2.38 30
8 05/14/2016 23:26:50 -73.56, 15.21 125.27 05/14/2016 23:25:46 -73.57, 15.29 125.27 2.48 64
9 05/17/2016 04:09:55 -73.62, -55.65 125.71 05/17/2016 04:10:04 -73.64, -55.63 125.69 2.35 9
10 05/17/2016 05:00:46 73.30, 112.39 53.99 05/17/2016 04:59:34 73.40, 111.50 54.04 30.48 72
11 05/19/2016 08:53:08 -74.07,-127.51 125.79 05/19/2016 08:54:18 -73.92,-126.10 125.87 46.39 70
12 05/19/2016 09:43:57 73.64, 40.85 53.82 05/19/2016 09:43:49 73.62, 40.90 53.81 2.01 8




NCC Satellite Simultaneous Nadir Overpasses (SNOs) Prediction Service
